Tracking 33203 objects as of 15-Feb-2026
HD Live streaming from Space Station
objects crossing your sky now

CZ-6A DEB

Track CZ-6A DEB now!
10-day predictions


NORAD ID: 54350
Int'l Code: 2022-151CV
Perigee: 735.0 km
Apogee: 830.8 km
Inclination: 98.7 °
Period: 100.4 minutes
Semi major axis: 7153 km
RCS: Unknown
Launch date: November 11, 2022
Source: People's Republic of China (PRC)
Launch site: Taiyaun Space Center, China (TSC)

Note: This is SATELLITE DEBRIS
Your satellite tracking list
Your tracking list is empty




NASA's NSSDC Master Catalog

Two Line Element Set (TLE):
1 54350U 22151CV  26046.32910901  .00000352  00000-0  13662-3 0  9992
2 54350  98.7199  90.3986 0066998 338.7953  21.0457 14.34796432170160
Source of the keplerian elements: AFSPC